"startDT [UTC]","vpos","CH4 [ppm]","stdev(CH4) [ppm]","CO2 [ppm]","stdev(CO2) [ppm]","H2O [ppm]","stdev(H2O)","p_LGR [torr]","T_LGR [C]","mt1_LGR [us]","mt2_LGR [us]","T_ECpre [C]","T_EC1 [C]","T_EC2 [C]","p_inlet [hPa]","p_in [hPa]","p_out [hPa]","T_inlet [C]","RH_inlet [%]","dwpt_inlet [C]","T_vent [C]","RH_vent [%]","dwpt_vent [C]","flow_vent [l min-1]","flow_inlet [l min-1]","dwpt_sample [C]","T_room [C]"
2012-02-01 00:00:00,0.0,1.9062,0.0008,400.57,0.21,199.5,34.3,138.10,30.01,24.61,36.35,0.04,-272.74,-272.74,-53,558,-919,25.2,3.5,-21.3,25.1,3.6,-21.0,5.73,2.31,-24.2,28.0
2012-02-01 00:01:00,0.0,1.9056,0.0010,400.48,0.22,204.2,34.9,138.10,30.00,24.62,36.35,0.04,-272.74,-272.74,-53,557,-919,25.2,3.5,-21.2,25.1,3.6,-20.9,5.73,2.41,-24.2,28.0
2012-02-01 00:02:00,0.0,1.9061,0.0009,400.52,0.17,205.6,32.0,138.10,30.00,24.61,36.35,0.04,-272.74,-272.74,-53,557,-919,25.2,3.5,-21.2,25.1,3.6,-20.9,5.73,2.21,-24.2,27.9
2012-02-01 00:03:00,0.0,1.9058,0.0009,400.48,0.19,211.1,34.5,138.10,29.99,24.62,36.35,0.04,-272.74,-272.74,-53,557,-919,25.1,3.5,-21.3,25.2,3.7,-20.8,5.73,2.43,-24.2,27.8
2012-02-01 00:04:00,0.0,1.9060,0.0009,400.52,0.17,204.5,35.4,138.10,29.99,24.62,36.35,0.04,-272.74,-272.74,-54,557,-919,25.2,3.5,-21.2,25.1,3.6,-20.9,5.73,2.27,-24.2,27.8
2012-02-01 00:05:00,0.0,1.9051,0.0007,400.45,0.15,210.5,31.5,138.10,29.98,24.62,36.35,0.04,-272.74,-272.74,-53,557,-919,25.2,3.5,-21.2,25.1,3.6,-20.9,5.73,2.30,-24.2,27.8
2012-02-01 00:06:00,0.0,1.9055,0.0009,400.45,0.18,202.3,27.8,138.10,29.98,24.62,36.35,0.04,-272.74,-272.74,-53,557,-919,25.1,3.5,-21.2,25.1,3.6,-20.9,5.73,2.42,-24.2,27.9
2012-02-01 00:07:00,0.0,1.9057,0.0009,400.46,0.20,206.5,33.7,138.10,29.97,24.62,36.35,0.04,-272.74,-272.74,-53,557,-919,25.1,3.5,-21.2,25.1,3.7,-20.8,5.73,2.21,-24.2,27.9
2012-02-01 00:08:00,0.0,1.9061,0.0010,400.54,0.25,201.4,28.2,138.10,29.97,24.62,36.35,0.04,-272.74,-272.74,-53,557,-919,25.1,3.6,-21.2,25.1,3.6,-20.9,5.73,2.42,-24.2,28.0
2012-02-01 00:09:00,0.0,1.9064,0.0010,400.47,0.19,199.6,34.5,138.10,29.96,24.62,36.35,0.04,-272.74,-272.74,-53,557,-919,25.1,3.5,-21.3,25.0,3.7,-20.8,5.73,2.30,-24.2,27.9
2012-02-01 00:10:00,0.0,1.9057,0.0008,400.55,0.22,203.6,32.6,138.10,29.95,24.62,36.35,0.04,-272.74,-272.74,-53,557,-919,25.1,3.5,-21.3,25.0,3.6,-21.0,5.73,2.28,-24.2,27.9
2012-02-01 00:11:00,0.0,1.9057,0.0009,400.51,0.25,191.4,30.5,138.10,29.94,24.62,36.35,0.04,-272.74,-272.74,-53,557,-919,25.1,3.5,-21.3,25.0,3.6,-21.0,5.73,2.43,-24.2,27.9
2012-02-01 00:12:00,0.0,1.9060,0.0009,400.51,0.21,197.9,36.1,138.10,29.94,24.62,36.35,0.04,-272.74,-272.74,-53,557,-919,25.1,3.5,-21.2,25.0,3.6,-21.0,5.73,2.21,-24.3,27.9
2012-02-01 00:13:00,0.0,1.9054,0.0010,400.44,0.18,205.9,27.9,138.10,29.93,24.62,36.36,0.04,-272.74,-272.74,-53,557,-919,25.1,3.6,-21.2,25.0,3.6,-20.9,5.73,2.40,-24.3,27.9
2012-02-01 00:14:00,0.0,1.9053,0.0009,400.38,0.22,204.6,35.3,138.10,29.93,24.62,36.36,0.04,-272.74,-272.74,-53,557,-919,25.1,3.5,-21.2,25.0,3.7,-20.9,5.73,2.33,-24.3,27.9
2012-02-01 00:15:00,0.0,1.9054,0.0008,400.44,0.19,197.5,31.0,138.10,29.92,24.62,36.36,0.04,-272.74,-272.74,-53,557,-919,25.0,3.5,-21.2,25.0,3.7,-20.9,5.73,2.26,-24.3,27.8
2012-02-01 00:16:00,0.0,1.9061,0.0009,400.52,0.24,195.8,30.3,138.10,29.91,24.62,36.35,0.04,-272.74,-272.74,-53,557,-919,25.1,3.6,-21.2,25.0,3.7,-20.9,5.73,2.44,-24.2,28.0
2012-02-01 00:17:00,0.0,1.9058,0.0009,400.58,0.18,194.6,34.0,138.10,29.91,24.62,36.35,0.04,-272.74,-272.74,-53,557,-919,25.0,3.5,-21.3,25.0,3.6,-21.0,5.73,2.23,-24.3,27.8
2012-02-01 00:18:00,0.0,1.9060,0.0007,400.50,0.19,215.7,29.2,138.10,29.90,24.62,36.36,0.04,-272.74,-272.74,-53,557,-919,25.0,3.5,-21.3,25.0,3.6,-21.0,5.73,2.36,-24.3,27.9
2012-02-01 00:19:00,0.0,1.9062,0.0009,400.58,0.19,211.9,32.9,138.10,29.90,24.62,36.35,0.04,-272.74,-272.74,-53,557,-919,25.0,3.5,-21.4,25.0,3.7,-20.9,5.73,2.38,-24.3,27.8
2012-02-01 00:20:00,0.0,1.9059,0.0008,400.49,0.16,200.1,32.4,138.10,29.89,24.62,36.35,0.04,-272.74,-272.74,-53,557,-919,25.0,3.5,-21.4,25.0,3.6,-21.0,5.73,2.22,-24.3,27.8
2012-02-01 00:21:00,0.0,1.9058,0.0009,400.47,0.16,197.6,27.9,138.10,29.88,24.62,36.35,0.04,-272.74,-272.74,-52,557,-919,25.0,3.5,-21.3,24.9,3.6,-21.0,5.73,2.43,-24.3,27.7
2012-02-01 00:22:00,0.0,1.9051,0.0009,400.44,0.24,198.4,30.6,138.10,29.88,24.62,36.35,0.04,-272.74,-272.74,-53,557,-919,25.0,3.5,-21.2,24.9,3.7,-20.9,5.73,2.28,-24.3,27.8
2012-02-01 00:23:00,0.0,1.9049,0.0008,400.40,0.21,200.9,34.3,138.10,29.87,24.61,36.35,0.04,-272.74,-272.74,-53,557,-919,25.0,3.6,-21.1,24.9,3.7,-20.8,5.73,2.29,-24.3,27.7
2012-02-01 00:24:00,0.0,1.9040,0.0009,400.41,0.20,200.5,30.5,138.10,29.87,24.62,36.35,0.04,-272.74,-272.74,-52,557,-919,25.0,3.6,-21.0,24.9,3.7,-20.7,5.73,2.43,-24.3,27.7
2012-02-01 00:25:00,0.0,1.9041,0.0009,400.36,0.21,200.9,34.2,138.10,29.86,24.62,36.35,0.04,-272.74,-272.74,-53,556,-919,25.0,3.7,-20.9,25.0,3.8,-20.6,5.73,2.22,-24.3,27.8
2012-02-01 00:26:00,0.0,1.9042,0.0010,400.39,0.18,190.2,32.0,138.10,29.86,24.62,36.35,0.04,-272.74,-272.74,-53,557,-919,25.0,3.7,-20.9,24.9,3.8,-20.5,5.73,2.38,-24.3,27.8
2012-02-01 00:27:00,0.0,1.9043,0.0008,400.33,0.18,189.0,32.2,138.10,29.85,24.61,36.35,0.04,-272.74,-272.74,-53,557,-919,25.0,3.7,-20.8,25.0,3.8,-20.5,5.73,2.36,-24.3,27.8
2012-02-01 00:28:00,0.0,1.9037,0.0008,400.39,0.14,199.6,33.2,138.10,29.84,24.62,36.35,0.04,-272.74,-272.74,-53,556,-918,25.0,3.7,-20.9,24.9,3.8,-20.6,5.73,2.23,-24.3,27.8
2012-02-01 00:29:00,0.0,1.9041,0.0009,400.31,0.19,190.2,32.4,138.10,29.84,24.62,36.36,0.04,-272.74,-272.74,-53,557,-919,25.0,3.7,-20.8,24.9,3.8,-20.5,5.73,2.44,-24.3,27.8
2012-02-01 00:30:00,0.0,1.9047,0.0009,400.45,0.22,199.8,29.3,138.10,29.83,24.61,36.35,0.04,-272.74,-272.74,-52,557,-919,24.9,3.7,-20.9,24.9,3.8,-20.5,5.73,2.27,-24.3,27.7
2012-02-01 00:31:00,0.0,1.9045,0.0009,400.48,0.20,192.8,35.7,138.10,29.83,24.61,36.35,0.04,-272.74,-272.74,-53,556,-919,24.9,3.7,-20.9,24.9,3.8,-20.6,5.73,2.30,-24.3,27.7
2012-02-01 00:32:00,0.0,1.9044,0.0009,400.37,0.19,194.5,33.8,138.10,29.82,24.62,36.35,0.04,-272.74,-272.74,-53,556,-919,24.9,3.7,-21.0,24.9,3.8,-20.5,5.73,2.43,-24.3,27.7
2012-02-01 00:33:00,0.0,1.9046,0.0009,400.42,0.17,199.2,30.3,138.10,29.81,24.62,36.35,0.04,-272.74,-272.74,-52,557,-919,25.0,3.7,-20.9,24.9,3.8,-20.7,5.73,2.22,-24.3,27.6
2012-02-01 00:34:00,0.0,1.9041,0.0009,400.42,0.18,197.6,33.1,138.10,29.81,24.62,36.35,0.04,-272.74,-272.74,-53,556,-919,24.9,3.6,-21.0,24.9,3.8,-20.7,5.73,2.39,-24.3,27.6
2012-02-01 00:35:00,0.0,1.9043,0.0009,400.44,0.20,191.6,33.0,138.10,29.80,24.62,36.35,0.04,-272.74,-272.74,-53,556,-919,24.9,3.7,-20.9,24.9,3.8,-20.6,5.73,2.35,-24.3,27.7
2012-02-01 00:36:00,0.0,1.9041,0.0009,400.41,0.19,196.1,32.1,138.10,29.80,24.62,36.35,0.04,-272.74,-272.74,-53,557,-919,24.9,3.7,-20.9,24.9,3.8,-20.6,5.73,2.24,-24.3,27.7
2012-02-01 00:37:00,0.0,1.9040,0.0009,400.40,0.20,202.6,30.9,138.10,29.79,24.61,36.35,0.04,-272.74,-272.74,-53,557,-919,24.9,3.7,-20.7,24.9,3.8,-20.5,5.73,2.44,-24.3,27.7
2012-02-01 00:38:00,0.0,1.9040,0.0009,400.33,0.22,198.6,33.8,138.10,29.79,24.61,36.35,0.04,-272.74,-272.74,-53,556,-919,24.9,3.7,-20.8,24.9,3.8,-20.5,5.73,2.28,-24.3,27.8
2012-02-01 00:39:00,0.0,1.9041,0.0010,400.36,0.18,197.8,32.6,138.10,29.78,24.62,36.35,0.04,-272.74,-272.74,-53,557,-919,24.9,3.7,-20.8,24.9,3.8,-20.5,5.73,2.28,-24.3,27.7
2012-02-01 00:40:00,0.0,1.9048,0.0009,400.48,0.18,205.9,29.2,138.10,29.77,24.61,36.35,0.04,-272.74,-272.74,-53,556,-919,24.9,3.7,-20.9,24.9,3.8,-20.5,5.73,2.44,-24.3,27.7
2012-02-01 00:41:00,0.0,1.9045,0.0009,400.43,0.25,197.6,33.2,138.10,29.77,24.62,36.35,0.04,-272.74,-272.74,-53,556,-919,24.9,3.7,-20.9,24.9,3.8,-20.6,5.73,2.23,-24.3,27.7
2012-02-01 00:42:00,0.0,1.9053,0.0008,400.44,0.19,198.5,33.2,138.10,29.77,24.61,36.35,0.04,-272.74,-272.74,-53,556,-919,24.9,3.7,-21.0,24.8,3.8,-20.7,5.73,2.37,-24.3,27.7
2012-02-01 00:43:00,0.0,1.9051,0.0010,400.51,0.19,196.0,34.4,138.10,29.76,24.62,36.35,0.04,-272.74,-272.74,-52,556,-919,24.9,3.7,-21.0,24.8,3.8,-20.7,5.73,2.38,-24.3,27.7
2012-02-01 00:44:00,0.0,1.9058,0.0010,400.62,0.21,199.9,39.0,138.10,29.76,24.61,36.34,0.04,-272.74,-272.74,-53,556,-919,24.9,3.6,-21.1,24.8,3.7,-20.8,5.73,2.22,-24.3,27.7
2012-02-01 00:45:00,0.0,1.9054,0.0009,400.47,0.19,194.8,32.9,138.10,29.75,24.62,36.36,0.04,-272.74,-272.74,-53,556,-919,24.9,3.6,-21.1,24.8,3.7,-20.8,5.73,2.42,-24.3,27.8
2012-02-01 00:46:00,0.0,1.9058,0.0009,400.51,0.18,194.1,28.2,138.10,29.75,24.61,36.35,0.04,-272.74,-272.74,-52,556,-919,24.9,3.6,-21.2,24.8,3.6,-21.1,5.73,2.32,-24.3,27.7
2012-02-01 00:47:00,0.0,1.9055,0.0010,400.60,0.16,198.4,34.2,138.10,29.74,24.62,36.35,0.04,-272.74,-272.74,-53,556,-919,24.9,3.6,-21.2,24.8,3.7,-21.0,5.73,2.25,-24.4,27.7
2012-02-01 00:48:00,0.0,1.9054,0.0009,400.61,0.19,192.1,29.8,138.10,29.74,24.61,36.35,0.04,-272.74,-272.74,-53,556,-919,24.9,3.6,-21.2,24.8,3.7,-21.0,5.73,2.45,-24.4,27.7
2012-02-01 00:49:00,0.0,1.9056,0.0008,400.56,0.20,189.7,32.5,138.10,29.73,24.61,36.35,0.04,-272.74,-272.74,-52,556,-919,24.9,3.6,-21.3,24.8,3.7,-20.9,5.73,2.26,-24.4,27.7
2012-02-01 00:50:00,0.0,1.9054,0.0010,400.58,0.22,199.5,31.6,138.10,29.72,24.62,36.35,0.04,-272.73,-272.74,-53,556,-919,24.9,3.6,-21.2,24.8,3.7,-21.0,5.73,2.32,-24.4,27.7
2012-02-01 00:51:00,0.0,1.9052,0.0008,400.49,0.18,197.9,31.7,138.10,29.72,24.62,36.35,0.04,-272.74,-272.74,-53,556,-919,24.9,3.6,-21.3,24.8,3.7,-20.9,5.73,2.42,-24.3,27.7
2012-02-01 00:52:00,0.0,1.9058,0.0010,400.53,0.19,195.2,33.3,138.10,29.71,24.62,36.35,0.04,-272.74,-272.74,-52,556,-919,24.9,3.6,-21.3,24.8,3.7,-21.0,5.73,2.22,-24.3,27.6
2012-02-01 00:53:00,0.0,1.9059,0.0009,400.54,0.20,203.0,32.5,138.10,29.71,24.61,36.35,0.04,-272.74,-272.74,-52,556,-919,24.8,3.6,-21.3,24.8,3.7,-21.0,5.73,2.38,-24.4,27.7
2012-02-01 00:54:00,0.0,1.9057,0.0010,400.60,0.22,193.2,29.4,138.11,29.70,24.62,36.34,0.04,-272.74,-272.74,-53,556,-919,24.8,3.6,-21.4,24.8,3.7,-21.0,5.73,2.38,-24.4,27.8
2012-02-01 00:55:00,0.0,1.9060,0.0010,400.52,0.21,198.0,32.2,138.11,29.70,24.61,36.35,0.04,-272.74,-272.74,-53,556,-919,24.8,3.6,-21.3,24.8,3.7,-21.1,5.73,2.22,-24.4,27.7
2012-02-01 00:56:00,0.0,1.9056,0.0009,400.51,0.19,198.5,33.1,138.10,29.69,24.61,36.35,0.04,-272.74,-272.74,-52,556,-919,24.8,3.6,-21.3,24.8,3.7,-21.0,5.73,2.43,-24.4,27.7
2012-02-01 00:57:00,0.0,1.9055,0.0009,400.57,0.21,191.2,31.2,138.10,29.69,24.61,36.35,0.04,-272.74,-272.74,-53,556,-919,24.8,3.6,-21.3,24.8,3.7,-20.9,5.73,2.31,-24.4,27.7
2012-02-01 00:58:00,0.0,1.9056,0.0008,400.56,0.20,196.0,33.7,138.10,29.68,24.61,36.35,0.04,-272.74,-272.74,-53,556,-919,24.8,3.6,-21.3,24.8,3.7,-20.9,5.73,2.26,-24.3,27.7
2012-02-01 00:59:00,0.0,1.9052,0.0009,400.59,0.22,194.9,32.0,138.11,29.68,24.61,36.34,0.04,-272.74,-272.74,-52,556,-918,24.8,3.6,-21.2,24.8,3.7,-20.9,5.73,2.44,-24.4,27.7
2012-02-01 01:00:00,0.0,1.9050,0.0009,400.56,0.22,198.3,29.6,138.11,29.67,24.62,36.35,0.04,-272.74,-272.74,-53,556,-919,24.8,3.6,-21.2,24.8,3.7,-20.9,5.73,2.25,-24.4,27.8
2012-02-01 01:01:00,0.0,1.9052,0.0009,400.62,0.18,198.8,35.0,138.11,29.67,24.61,36.34,0.04,-272.74,-272.74,-53,556,-919,24.8,3.6,-21.2,24.8,3.7,-20.8,5.73,2.34,-24.4,27.8
2012-02-01 01:02:00,0.0,1.9046,0.0010,400.39,0.22,190.3,27.5,138.11,29.66,24.62,36.36,0.04,-272.74,-272.74,-52,556,-919,24.8,3.6,-21.1,24.7,3.7,-20.9,5.73,2.41,-24.3,27.8
2012-02-01 01:03:00,0.0,1.9047,0.0009,400.52,0.18,205.2,31.4,138.11,29.66,24.62,36.35,0.04,-272.74,-272.74,-53,556,-919,24.8,3.6,-21.1,24.8,3.7,-20.8,5.73,2.22,-24.4,27.7
2012-02-01 01:04:00,0.0,1.9045,0.0009,400.50,0.19,194.6,36.4,138.11,29.65,24.62,36.35,0.04,-272.74,-272.74,-53,556,-918,24.8,3.6,-21.1,24.8,3.8,-20.8,5.73,2.41,-24.4,27.7
2012-02-01 01:05:00,0.0,1.9051,0.0010,400.47,0.16,202.9,38.3,138.10,29.65,24.61,36.35,0.04,-272.74,-272.74,-52,556,-919,24.8,3.6,-21.1,24.7,3.8,-20.7,5.73,2.35,-24.4,27.8
2012-02-01 01:06:00,0.0,1.9048,0.0011,400.50,0.20,192.3,32.6,138.11,29.64,24.62,36.35,0.04,-272.73,-272.74,-52,556,-919,24.8,3.6,-21.1,24.7,3.8,-20.8,5.73,2.23,-24.4,27.8
2012-02-01 01:07:00,0.0,1.9048,0.0009,400.55,0.17,193.9,40.8,138.11,29.64,24.62,36.35,0.04,-272.74,-272.74,-53,556,-919,24.8,3.7,-21.1,24.7,3.8,-20.7,5.73,2.44,-24.4,27.8
2012-02-01 01:08:00,0.0,1.9050,0.0011,400.53,0.18,194.5,31.1,138.11,29.63,24.61,36.35,0.04,-272.74,-272.74,-52,557,-918,24.8,3.6,-21.1,24.8,3.8,-20.7,5.73,2.28,-24.4,27.7
2012-02-01 01:09:00,0.0,1.9052,0.0009,400.55,0.22,195.2,29.9,138.11,29.63,24.61,36.34,0.04,-272.74,-272.74,-52,556,-919,24.7,3.6,-21.1,24.7,3.8,-20.8,5.73,2.30,-24.4,27.7
2012-02-01 01:10:00,0.0,1.9049,0.0008,400.62,0.18,192.5,33.4,138.11,29.62,24.62,36.34,0.04,-272.74,-272.74,-53,556,-918,24.7,3.7,-21.1,24.7,3.7,-20.8,5.73,2.43,-24.4,27.6
2012-02-01 01:11:00,0.0,1.9053,0.0011,400.51,0.18,189.3,31.4,138.11,29.62,24.61,36.34,0.04,-272.74,-272.74,-52,556,-919,24.7,3.6,-21.1,24.7,3.8,-20.8,5.73,2.23,-24.4,27.7
2012-02-01 01:12:00,0.0,1.9054,0.0010,400.61,0.16,191.5,31.7,138.11,29.61,24.61,36.34,0.04,-272.74,-272.74,-52,556,-918,24.7,3.6,-21.3,24.7,3.7,-21.0,5.73,2.36,-24.4,27.7
2012-02-01 01:13:00,0.0,1.9054,0.0009,400.53,0.20,199.9,27.7,138.11,29.61,24.62,36.35,0.04,-272.74,-272.74,-53,556,-919,24.7,3.6,-21.2,24.8,3.7,-20.9,5.73,2.39,-24.4,27.6
2012-02-01 01:14:00,0.0,1.9053,0.0007,400.53,0.17,190.0,33.2,138.11,29.60,24.62,36.35,0.04,-272.74,-272.74,-53,556,-918,24.7,3.6,-21.3,24.7,3.7,-20.9,5.73,2.22,-24.4,27.6
2012-02-01 01:15:00,0.0,1.9056,0.0008,400.59,0.21,190.4,29.7,138.11,29.60,24.62,36.35,0.04,-272.74,-272.74,-52,556,-919,24.7,3.6,-21.3,24.7,3.7,-21.0,5.73,2.42,-24.4,27.6
2012-02-01 01:16:00,0.0,1.9056,0.0009,400.60,0.23,194.0,38.8,138.11,29.59,24.61,36.34,0.04,-272.74,-272.74,-52,556,-918,24.7,3.6,-21.3,24.7,3.7,-21.0,5.73,2.33,-24.4,27.5
2012-02-01 01:17:00,0.0,1.9056,0.0007,400.66,0.23,191.7,29.2,138.11,29.59,24.62,36.34,0.04,-272.74,-272.74,-53,556,-919,24.7,3.6,-21.3,24.7,3.7,-21.0,5.73,2.25,-24.4,27.5
2012-02-01 01:18:00,0.0,1.9056,0.0008,400.62,0.19,190.2,30.8,138.11,29.58,24.62,36.35,0.04,-272.74,-272.74,-52,556,-918,24.7,3.6,-21.3,24.7,3.7,-21.0,5.73,2.44,-24.4,27.6
2012-02-01 01:19:00,0.0,1.9056,0.0008,400.59,0.18,190.6,27.5,138.11,29.58,24.61,36.34,0.04,-272.74,-272.74,-52,556,-919,24.7,3.6,-21.4,24.7,3.7,-21.0,5.73,2.27,-24.4,27.6
2012-02-01 01:20:00,0.0,1.9053,0.0009,400.48,0.23,188.9,31.7,138.11,29.58,24.62,36.35,0.04,-272.74,-272.74,-53,556,-918,24.7,3.6,-21.3,24.7,3.7,-20.9,5.73,2.29,-24.4,27.7
2012-02-01 01:21:00,0.0,1.9055,0.0010,400.56,0.18,191.2,31.3,138.11,29.57,24.62,36.35,0.04,-272.74,-272.74,-52,556,-918,24.7,3.6,-21.3,24.7,3.7,-20.9,5.73,2.44,-24.4,27.6
2012-02-01 01:22:00,0.0,1.9055,0.0009,400.60,0.16,196.4,33.6,138.11,29.56,24.61,36.35,0.04,-272.74,-272.74,-52,556,-918,24.7,3.6,-21.3,24.7,3.7,-20.9,5.73,2.24,-24.4,27.6
2012-02-01 01:23:00,0.0,1.9051,0.0008,400.56,0.17,196.4,33.4,138.11,29.56,24.62,36.35,0.04,-272.74,-272.74,-53,555,-919,24.7,3.6,-21.3,24.7,3.7,-20.9,5.73,2.36,-24.4,27.6
2012-02-01 01:24:00,0.0,1.9050,0.0007,400.56,0.22,192.2,30.0,138.11,29.55,24.62,36.35,0.04,-272.74,-272.74,-53,556,-918,24.7,3.6,-21.3,24.7,3.7,-20.9,5.73,2.40,-24.4,27.6
2012-02-01 01:25:00,0.0,1.9048,0.0010,400.51,0.19,190.5,33.6,138.11,29.55,24.62,36.35,0.04,-272.74,-272.74,-52,556,-918,24.7,3.6,-21.2,24.7,3.7,-20.9,5.73,2.22,-24.4,27.6
2012-02-01 01:26:00,0.0,1.9053,0.0009,400.59,0.21,188.8,30.7,138.11,29.55,24.61,36.35,0.04,-272.74,-272.74,-53,555,-918,24.7,3.6,-21.2,24.7,3.8,-20.8,5.73,2.42,-24.4,27.5
2012-02-01 01:27:00,0.0,1.9053,0.0011,400.59,0.18,195.3,27.6,138.11,29.54,24.62,36.34,0.04,-272.74,-272.74,-53,556,-918,24.7,3.6,-21.2,24.7,3.8,-20.8,5.73,2.33,-24.4,27.5
2012-02-01 01:28:00,0.0,1.9050,0.0010,400.58,0.23,188.4,31.5,138.11,29.54,24.62,36.35,0.04,-272.74,-272.74,-52,556,-918,24.7,3.6,-21.2,24.7,3.7,-20.9,5.73,2.24,-24.4,27.5
2012-02-01 01:29:00,0.0,1.9047,0.0009,400.51,0.22,185.7,34.3,138.11,29.53,24.62,36.35,0.04,-272.74,-272.74,-52,555,-919,24.7,3.6,-21.2,24.7,3.7,-20.9,5.73,2.44,-24.4,27.5
2012-02-01 01:30:00,0.0,1.9055,0.0010,400.68,0.18,182.2,33.0,138.11,29.53,24.61,36.34,0.04,-272.74,-272.74,-53,555,-918,24.7,3.6,-21.2,24.7,3.7,-20.9,5.73,2.28,-24.4,27.4
2012-02-01 01:31:00,0.0,1.9048,0.0010,400.58,0.18,196.4,33.1,138.11,29.52,24.62,36.34,0.04,-272.74,-272.74,-52,556,-918,24.7,3.6,-21.2,24.6,3.7,-20.9,5.73,2.29,-24.4,27.5
2012-02-01 01:32:00,0.0,1.9047,0.0009,400.62,0.21,192.6,33.6,138.11,29.52,24.62,36.34,0.04,-272.74,-272.74,-52,556,-918,24.7,3.6,-21.2,24.7,3.7,-20.9,5.73,2.44,-24.4,27.5
2012-02-01 01:33:00,0.0,1.9053,0.0010,400.53,0.20,189.0,32.9,138.11,29.51,24.61,36.35,0.04,-272.74,-272.74,-53,556,-918,24.7,3.6,-21.2,24.6,3.8,-20.8,5.73,2.24,-24.4,27.5
2012-02-01 01:34:00,0.0,1.9050,0.0008,400.50,0.18,190.3,30.5,138.11,29.51,24.61,36.35,0.04,-272.74,-272.74,-52,556,-918,24.7,3.6,-21.3,24.6,3.7,-21.0,5.73,2.33,-24.4,27.6
2012-02-01 01:35:00,0.0,1.9050,0.0010,400.61,0.18,186.1,34.1,138.11,29.50,24.61,36.34,0.04,-272.74,-272.74,-52,556,-918,24.7,3.6,-21.2,24.6,3.7,-20.9,5.73,2.42,-24.4,27.5
2012-02-01 01:36:00,0.0,1.9048,0.0009,400.60,0.19,190.9,34.4,138.11,29.50,24.61,36.35,0.04,-272.74,-272.74,-53,555,-918,24.7,3.6,-21.2,24.6,3.8,-20.8,5.73,2.23,-24.5,27.5
2012-02-01 01:37:00,0.0,1.9047,0.0009,400.50,0.20,194.4,30.0,138.11,29.49,24.61,36.35,0.04,-272.74,-272.74,-53,556,-918,24.7,3.7,-21.1,24.6,3.8,-20.8,5.73,2.37,-24.4,27.5
2012-02-01 01:38:00,0.0,1.9044,0.0009,400.56,0.21,188.3,31.9,138.11,29.49,24.61,36.34,0.04,-272.74,-272.74,-52,556,-918,24.7,3.7,-21.1,24.6,3.8,-20.7,5.73,2.39,-24.5,27.5
2012-02-01 01:39:00,0.0,1.9042,0.0008,400.55,0.21,187.6,34.5,138.11,29.48,24.62,36.34,0.04,-272.74,-272.74,-53,555,-918,24.6,3.7,-21.0,24.6,3.8,-20.7,5.73,2.22,-24.5,27.4
2012-02-01 01:40:00,0.0,1.9042,0.0009,400.51,0.19,191.0,34.1,138.11,29.47,24.61,36.35,0.04,-272.74,-272.74,-53,555,-918,24.6,3.7,-20.9,24.6,3.9,-20.5,5.73,2.41,-24.5,27.4
2012-02-01 01:41:00,0.0,1.9044,0.0009,400.54,0.20,191.0,31.4,138.11,29.47,24.62,36.34,0.04,-272.74,-272.74,-52,556,-918,24.6,3.7,-20.9,24.6,3.8,-20.6,5.73,2.35,-24.5,27.3
2012-02-01 01:42:00,0.0,1.9045,0.0010,400.55,0.18,180.4,29.0,138.11,29.46,24.61,36.34,0.04,-272.74,-272.74,-52,555,-918,24.6,3.8,-20.9,24.6,3.9,-20.5,5.73,2.23,-24.5,27.4
2012-02-01 01:43:00,0.0,1.9040,0.0010,400.49,0.21,185.5,26.0,138.11,29.46,24.62,36.35,0.04,-272.74,-272.73,-53,555,-918,24.6,3.8,-20.8,24.6,3.9,-20.5,5.73,2.43,-24.5,27.4
2012-02-01 01:44:00,0.0,1.9042,0.0010,400.44,0.19,192.2,34.7,138.11,29.45,24.61,36.35,0.04,-272.74,-272.74,-53,555,-918,24.6,3.8,-20.8,24.6,3.9,-20.5,5.73,2.31,-24.5,27.4
2012-02-01 01:45:00,0.0,1.9041,0.0008,400.49,0.25,187.1,31.6,138.11,29.45,24.62,36.34,0.04,-272.74,-272.74,-52,555,-918,24.6,3.8,-20.7,24.6,3.9,-20.5,5.73,2.26,-24.5,27.4
2012-02-01 01:46:00,0.0,1.9041,0.0009,400.60,0.20,192.4,32.4,138.11,29.44,24.62,36.34,0.04,-272.73,-272.74,-53,555,-918,24.6,3.8,-20.7,24.6,3.9,-20.4,5.73,2.44,-24.5,27.4
2012-02-01 01:47:00,0.0,1.9042,0.0009,400.58,0.20,187.3,35.2,138.11,29.44,24.61,36.34,0.04,-272.74,-272.74,-53,555,-918,24.6,3.8,-20.7,24.5,4.0,-20.3,5.73,2.29,-24.5,27.4
2012-02-01 01:48:00,0.0,1.9044,0.0009,400.60,0.24,189.9,36.8,138.11,29.43,24.62,36.34,0.04,-272.74,-272.74,-52,555,-918,24.6,3.8,-20.7,24.5,4.0,-20.3,5.73,2.27,-24.5,27.4
2012-02-01 01:49:00,0.0,1.9043,0.0009,400.54,0.21,182.2,36.4,138.11,29.43,24.62,36.34,0.04,-272.74,-272.74,-52,555,-918,24.6,3.8,-20.6,24.5,4.0,-20.3,5.73,2.44,-24.5,27.4
2012-02-01 01:50:00,0.0,1.9048,0.0010,400.56,0.20,187.4,35.8,138.11,29.42,24.61,36.34,0.04,-272.74,-272.74,-53,555,-918,24.6,3.9,-20.6,24.5,4.0,-20.3,5.73,2.27,-24.5,27.5
2012-02-01 01:51:00,0.0,1.9043,0.0009,400.57,0.18,185.5,35.5,138.11,29.42,24.62,36.34,0.04,-272.74,-272.74,-52,555,-918,24.6,3.9,-20.6,24.5,4.0,-20.3,5.73,2.30,-24.5,27.4
2012-02-01 01:52:00,0.0,1.9050,0.0009,400.57,0.21,192.2,30.6,138.11,29.41,24.61,36.34,0.04,-272.74,-272.74,-52,555,-918,24.6,3.9,-20.6,24.5,4.0,-20.3,5.73,2.44,-24.5,27.5
2012-02-01 01:53:00,0.0,1.9045,0.0009,400.55,0.19,178.7,28.1,138.11,29.41,24.61,36.34,0.04,-272.74,-272.74,-53,555,-918,24.6,3.9,-20.6,24.6,4.0,-20.3,5.73,2.24,-24.5,27.4
2012-02-01 01:54:00,0.0,1.9048,0.0009,400.62,0.19,193.5,32.7,138.11,29.40,24.61,36.34,0.04,-272.74,-272.73,-53,555,-918,24.6,3.9,-20.6,24.5,4.0,-20.2,5.73,2.32,-24.6,27.4
2012-02-01 01:55:00,0.0,1.9048,0.0009,400.55,0.17,177.4,34.9,138.11,29.40,24.61,36.34,0.04,-272.74,-272.74,-52,555,-918,24.6,3.9,-20.6,24.5,4.0,-20.3,5.73,2.43,-24.5,27.5
2012-02-01 01:56:00,0.0,1.9048,0.0009,400.60,0.21,184.9,31.1,138.11,29.39,24.61,36.34,0.04,-272.74,-272.74,-52,555,-918,24.6,3.9,-20.6,24.5,4.0,-20.3,5.73,2.23,-24.5,27.4
2012-02-01 01:57:00,0.0,1.9043,0.0009,400.59,0.22,180.0,34.6,138.11,29.39,24.62,36.34,0.04,-272.74,-272.74,-53,555,-918,24.6,3.9,-20.5,24.5,4.0,-20.3,5.73,2.34,-24.5,27.3
2012-02-01 01:58:00,0.0,1.9049,0.0010,400.60,0.17,179.0,38.3,138.11,29.38,24.61,36.34,0.04,-272.74,-272.74,-52,555,-918,24.5,3.9,-20.5,24.5,4.0,-20.2,5.73,2.42,-24.5,27.3
2012-02-01 01:59:00,0.0,1.9046,0.0008,400.64,0.21,186.6,34.2,138.11,29.38,24.61,36.34,0.04,-272.74,-272.74,-52,555,-918,24.5,3.9,-20.5,24.5,4.0,-20.2,5.73,2.23,-24.6,27.3
2012-02-01 02:00:00,0.0,1.9050,0.0009,400.62,0.24,188.3,36.6,138.11,29.37,24.61,36.34,0.04,-272.74,-272.74,-52,555,-918,24.5,3.9,-20.6,24.5,4.0,-20.3,5.73,2.36,-24.6,27.3
2012-02-01 02:01:00,0.0,1.9056,0.0010,400.68,0.22,185.0,32.0,138.11,29.37,24.61,36.34,0.04,-272.74,-272.74,-52,555,-918,24.5,3.8,-20.6,24.5,4.0,-20.4,5.73,2.41,-24.5,27.3
2012-02-01 02:02:00,0.0,1.9050,0.0010,400.57,0.22,189.1,30.9,138.11,29.36,24.62,36.34,0.04,-272.74,-272.74,-52,555,-918,24.5,3.8,-20.6,24.5,3.9,-20.4,5.73,2.23,-24.6,27.4
2012-02-01 02:03:00,0.0,1.9053,0.0008,400.57,0.22,187.4,34.2,138.11,29.36,24.61,36.34,0.04,-272.74,-272.74,-52,555,-918,24.5,3.9,-20.6,24.5,4.0,-20.4,5.73,2.36,-24.5,27.5
2012-02-01 02:04:00,0.0,1.9049,0.0008,400.61,0.22,185.5,27.4,138.11,29.35,24.61,36.34,0.04,-272.73,-272.74,-52,555,-918,24.5,3.9,-20.6,24.5,4.0,-20.3,5.73,2.41,-24.5,27.4
2012-02-01 02:05:00,0.0,1.9044,0.0010,400.51,0.20,184.8,35.1,138.11,29.35,24.62,36.35,0.04,-272.74,-272.74,-52,555,-918,24.5,3.9,-20.5,24.5,4.0,-20.2,5.73,2.22,-24.5,27.4
2012-02-01 02:06:00,0.0,1.9043,0.0008,400.57,0.19,181.8,35.9,138.11,29.34,24.62,36.34,0.04,-272.74,-272.74,-52,555,-918,24.5,3.9,-20.5,24.5,4.0,-20.2,5.73,2.37,-24.5,27.4
2012-02-01 02:07:00,0.0,1.9046,0.0008,400.50,0.19,189.6,32.4,138.11,29.34,24.61,36.34,0.04,-272.74,-272.74,-52,555,-919,24.5,3.9,-20.5,24.5,4.0,-20.1,5.73,2.40,-24.5,27.3
2012-02-01 02:08:00,0.0,1.9044,0.0010,400.52,0.21,192.4,30.2,138.11,29.33,24.62,36.34,0.04,-272.74,-272.74,-52,555,-918,24.5,3.9,-20.5,24.5,4.0,-20.1,5.73,2.22,-24.5,27.4
2012-02-01 02:09:00,0.0,1.9048,0.0009,400.67,0.18,184.5,27.9,138.11,29.33,24.61,36.34,0.04,-272.74,-272.74,-52,555,-918,24.5,3.9,-20.5,24.5,4.0,-20.2,5.73,2.37,-24.5,27.3
2012-02-01 02:10:00,0.0,1.9048,0.0010,400.58,0.22,189.0,32.8,138.11,29.32,24.61,36.34,0.04,-272.74,-272.74,-52,555,-918,24.5,3.9,-20.4,24.5,4.1,-20.1,5.73,2.39,-24.5,27.2
2012-02-01 02:11:00,0.0,1.9048,0.0010,400.59,0.22,195.1,34.5,138.11,29.32,24.61,36.34,0.04,-272.74,-272.74,-53,555,-918,24.5,3.9,-20.4,24.5,4.1,-20.0,5.73,2.22,-24.5,27.4
2012-02-01 02:12:00,0.0,1.9045,0.0009,400.50,0.22,187.0,35.8,138.11,29.31,24.61,36.35,0.04,-272.74,-272.74,-52,555,-918,24.5,4.0,-20.3,24.5,4.1,-20.0,5.73,2.39,-24.5,27.3
2012-02-01 02:13:00,0.0,1.9048,0.0010,400.60,0.24,189.2,32.0,138.11,29.31,24.61,36.34,0.04,-272.74,-272.74,-52,555,-918,24.5,4.0,-20.3,24.5,4.1,-20.0,5.73,2.37,-24.5,27.3
2012-02-01 02:14:00,0.0,1.9051,0.0010,400.45,0.26,188.6,32.3,138.11,29.31,24.61,36.35,0.04,-272.74,-272.74,-52,555,-918,24.5,4.0,-20.3,24.5,4.1,-20.0,5.73,2.22,-24.5,27.4
2012-02-01 02:15:00,0.0,1.9050,0.0008,400.62,0.21,192.7,31.3,138.11,29.30,24.61,36.34,0.04,-272.74,-272.74,-52,555,-918,24.5,4.0,-20.3,24.4,4.1,-20.0,5.73,2.42,-24.5,27.4
2012-02-01 02:16:00,0.0,1.9051,0.0010,400.59,0.21,186.1,34.4,138.11,29.30,24.61,36.34,0.04,-272.74,-272.74,-52,555,-918,24.5,4.0,-20.3,24.4,4.1,-20.0,5.73,2.34,-24.5,27.4